This demonstration page uses our WeatherBlox Daily Observations layout. Learn more.

41.55636, -103.73856

Hourly Observations for January 2, 2019

Temp ( °F °C ) Dew Point ( °F °C ) Humidity (%) Winds ( mph kmh ) Pressure ( in mb ) Visibility ( mi km ) Precip ( " mm )
12:58 am 00:58 Clear 5 -14.8 -1 -18.5 74 74 W 12 19 30.34 1027 10 16.0934 0 0
1:58 am 01:58 Clear 4 -15.3 -2 -19.1 73 73 W 16 26 30.35 1028 10 16.0934 0 0
2:58 am 02:58 Clear 9 -12.8 -3 -19.2 59 59 W 24 39 30.33 1027 10 16.0934 0 0
3:58 am 03:58 Clear 9 -12.8 -3 -19.7 57 57 W 22 35 30.3 1026 10 16.0934 0 0
4:58 am 04:58 Clear 8 -13.5 -4 -20.1 58 58 W 16 26 30.27 1025 10 16.0934 0 0
5:58 am 05:58 Clear 8 -13.3 -4 -20.2 56 56 W 16 26 30.28 1026 10 16.0934 0 0
6:58 am 06:58 Clear 10 -12.5 -5 -20.3 52 52 W 18 30 30.27 1025 10 16.0934 0 0
7:58 am 07:58 Clear 10 -12.4 -4 -19.9 54 54 W 17 28 30.27 1025 10 16.0934 0 0
8:58 am 08:58 Clear 10 -12.3 -4 -19.9 53 53 W 18 30 30.29 1026 10 16.0934 0 0
9:58 am 09:58 Clear 12 -11 -3 -19.4 50 50 W 24 39 30.26 1025 10 16.0934 0 0
10:58 am 10:58 Clear 13 -10.3 -2 -19 49 49 WNW 24 39 30.25 1024 10 16.0934 0 0
11:58 am 11:58 Clear 13 -10.5 -1 -18.5 52 52 WNW 21 33 30.24 1024 10 16.0934 0 0
12:58 pm 12:58 Clear 14 -10.1 -2 -18.9 49 49 WNW 20 31 30.25 1024 10 16.0934 0 0
1:58 pm 13:58 Clear 13 -10.8 -2 -18.7 53 53 W 15 24 30.29 1026 10 16.0934 0 0
2:58 pm 14:58 Sunny 16 -8.9 -1 -18.4 46 46 W 18 30 30.29 1026 10 16.0934 0 0
3:58 pm 15:58 Sunny 20 -6.7 1 -17.2 43 43 W 17 28 30.27 1025 10 16.0934 0 0
4:58 pm 16:58 Sunny 26 -3.6 4 -15.4 40 40 W 12 19 30.26 1025 10 16.0934 0 0
5:58 pm 17:58 Sunny 28 -2.1 4 -15.3 36 36 W 16 26 30.22 1023 10 16.0934 0 0
6:58 pm 18:58 Sunny 29 -1.7 7 -13.7 40 40 WNW 15 24 30.21 1023 10 16.0934 0 0
7:58 pm 19:58 Sunny 32 -0.1 9 -12.9 38 38 WNW 9 15 30.17 1022 10 16.0934 0 0
8:58 pm 20:58 Sunny 31 -0.7 11 -11.7 44 44 WNW 16 26 30.17 1022 10 16.0934 0 0
9:58 pm 21:58 Sunny 32 -0.1 11 -11.5 42 42 WNW 9 15 30.15 1021 10 16.0934 0 0
10:58 pm 22:58 Sunny 29 -1.9 14 -9.8 55 55 W 14 22 30.17 1022 10 16.0934 0 0
11:58 pm 23:58 Clear 23 -5 10 -12.3 57 57 W 15 24 30.2 1023 10 16.0934 0 0

Powered by AerisWeather